Temperature
22 22 22 22 22 21 21 22 22 22 22 23 23 22 21 20 19 18 18 17 17 16 16 16 16 15 15 15 15 15 14 14 14 14 14 14 14 14 14 14 13 13 13 13
21 21 21 21 21 21 21 22 22 22 22 23 22 21 20 19 18 18 17 17 16 16 16 16 16 15 15 15 15 15 14 14 14 14 14 14 14 14 14 14 13 13 13 13
21 21 21 21 22 22 22 22 22 22 22 22 21 20 20 19 18 18 17 17 16 16 16 16 16 16 15 15 15 14 14 14 14 14 14 14 13 14 14 14 13 13 13 13
21 21 20 22 22 21 21 21 21 21 21 20 20 19 18 18 18 17 17 16 16 16 16 16 15 15 15 15 15 14 14 14 14 14 14 13 13 13 13 13 13 13 13 13
20 20 21 22 21 20 20 21 21 21 20 19 18 18 19 17 17 16 16 16 16 15 15 15 15 15 15 15 14 14 14 14 14 14 13 13 13 13 13 13 13 13 13 13
19 19 20 21 21 19 20 20 21 20 20 19 18 20 20 17 16 16 16 15 15 15 15 15 15 15 14 14 14 14 14 14 14 13 13 13 13 13 13 13 13 13 13 13
19 19 20 21 19 19 20 21 20 19 19 18 19 20 18 16 16 16 15 15 15 15 15 15 14 14 14 14 14 14 14 14 13 13 13 13 13 13 13 13 13 13 13 12
19 19 19 19 18 19 20 19 18 18 18 17 17 17 16 16 15 15 15 15 15 15 15 14 14 14 14 14 14 13 13 13 13 13 13 13 13 13 13 12 13 12 12 12
19 20 19 18 18 18 17 18 17 17 17 16 16 16 15 15 15 15 15 15 14 14 14 14 14 14 13 13 13 13 13 13 13 13 12 12 12 12 12 12 12 12 12 12
18 19 18 17 16 16 16 16 16 16 16 15 15 15 15 15 15 15 14 14 14 14 14 13 13 13 13 13 13 13 12 12 12 12 12 12 12 12 12 12 12 12 12 12
18 18 17 16 16 15 15 15 15 15 15 15 15 14 15 15 14 14 14 14 14 14 13 13 13 13 13 13 12 12 12 12 12 12 12 12 12 12 12 12 12 12 12 11
18 18 18 17 16 15 15 15 15 14 14 14 14 14 14 14 14 14 14 13 13 13 13 13 12 12 12 12 12 12 12 12 12 12 11 11 11 11 12 12 12 12 12 11
16 15 15 15 15 15 14 14 14 14 14 14 14 14 13 13 13 13 13 13 13 12 12 12 12 12 12 12 12 11 11 11 11 11 11 11 11 11 11 11 11 11 11 11
14 14 14 14 14 14 14 13 13 13 13 13 13 13 13 13 13 13 12 12 12 12 12 12 12 12 12 11 11 11 11 11 11 11 11 11 11 11 11 11 10 11 11 11
13 13 13 13 13 13 13 13 13 13 12 12 13 12 12 12 12 12 12 12 12 11 11 11 11 11 11 11 11 11 11 10 10 10 10 10 10 10 10 10 10 10 10 10
13 12 12 12 12 12 12 12 12 12 12 12 12 12 12 12 12 11 11 11 11 11 11 11 11 11 11 11 11 10 10 10 10 10 10 10 10 10 10 10 9 9 9 10
12 12 12 12 12 12 12 12 12 11 11 11 11 11 11 11 11 11 11 11 11 11 10 10 10 10 10 10 10 10 10 10 10 10 9 9 9 9 9 9 9 9 9 9
12 12 12 12 12 12 11 11 11 11 11 11 11 11 11 11 11 11 11 10 10 10 10 10 10 10 10 10 10 10 9 9 9 9 9 9 9 9 9 9 8 8 8 8
11 11 12 12 11 11 11 11 11 11 11 11 10 10 10 10 10 10 10 10 10 10 10 10 10 10 10 10 9 9 9 9 9 9 8 8 8 8 8 8 8 8 8 8
11 11 11 11 11 11 11 10 10 10 10 10 10 10 10 10 10 10 10 10 10 10 10 9 9 9 9 9 9 9 9 8 8 8 8 8 8 8 8 8 8 7 7 7
11 11 10 10 10 10 10 10 10 9 9 9 9 9 9 9 9 9 9 9 9 9 9 9 9 9 9 9 9 8 8 8 8 8 7 7 7 7 7 7 7 7 7 7
10 10 10 10 10 10 9 9 9 9 9 9 9 9 9 9 9 8 9 9 9 9 9 9 9 9 9 8 8 8 8 8 7 7 7 7 6 6 6 6 6 6 6 6
9 9 9 9 9 9 9 8 8 8 8 8 8 8 8 8 8 8 8 8 8 8 8 8 8 8 8 8 8 8 7 7 7 7 6 6 6 6 6 6 6 5 5 5
8 8 8 8 8 8 8 8 8 8 8 8 7 8 8 7 7 7 7 8 8 8 8 8 8 8 8 7 7 7 7 6 6 6 6 6 5 5 5 5 5 5 5 5
8 8 7 7 7 7 7 7 7 7 7 7 7 7 7 7 7 7 7 7 7 7 7 7 7 7 7 6 6 6 6 6 6 6 5 5 5 5 5 4 4 4 4 4
7 7 7 7 7 7 7 7 6 7 7 6 6 6 6 6 6 6 6 6 6 6 6 6 6 6 6 6 6 6 5 5 5 5 5 5 4 4 4 4 4 4 4 4
6 6 6 6 6 6 6 6 6 6 6 6 6 6 6 6 6 6 6 6 6 6 6 5 5 5 5 5 5 5 5 5 4 4 4 4 4 4 4 4 3 3 3 3
Wind_Speed
7 6 6 8 10 10 12 12 12 11 11 10 8 5 4 4 4 4 5 6 6 6 6 6 5 5 4 4 4 4 4 5 4 5 4 4 5 5 5 5 5 5 4 4
7 6 7 11 12 12 13 12 13 13 13 8 5 5 5 5 4 5 6 6 6 6 6 6 6 5 5 4 4 4 4 4 3 3 3 4 4 4 4 4 5 5 5 5
7 5 7 11 10 11 11 10 11 12 9 5 5 5 6 5 5 6 6 6 6 6 6 6 6 6 5 5 4 4 4 4 3 3 3 4 4 4 4 5 5 5 5 5
6 6 9 3 1 4 8 9 8 8 6 5 6 5 4 4 5 5 5 6 6 6 6 6 6 6 6 5 5 4 4 3 3 4 4 4 4 4 4 4 4 4 5 5
6 8 10 6 3 3 6 8 6 6 5 5 4 4 4 4 4 4 4 5 5 5 5 6 6 6 6 6 5 5 4 4 4 4 4 4 5 5 4 4 4 5 5 5
7 8 8 3 1 2 5 6 2 4 4 4 4 5 3 1 3 3 3 3 4 5 5 5 5 6 7 7 6 6 5 5 4 4 4 5 5 5 4 4 5 4 4 5
11 10 7 2 1 2 5 3 2 4 4 5 6 5 2 1 2 2 2 3 4 5 5 4 5 6 7 7 7 6 5 5 4 4 4 4 4 4 4 4 4 4 4 4
8 9 7 2 2 4 5 5 4 4 5 6 6 4 2 2 2 2 2 3 4 5 4 4 5 5 6 6 6 5 5 5 5 5 4 3 4 4 4 4 4 4 4 4
7 6 3 2 4 5 6 6 5 5 6 5 5 5 4 3 3 2 3 3 4 5 4 4 5 5 6 5 4 5 5 5 5 5 4 4 4 4 4 4 4 4 4 4
7 8 6 6 6 6 6 7 7 7 6 5 6 5 4 4 3 3 3 3 4 4 5 4 5 5 5 4 4 5 5 5 5 5 4 4 3 4 4 4 4 5 5 5
10 9 7 7 7 7 7 7 6 5 5 5 5 5 5 4 4 4 3 3 4 5 5 5 4 4 4 4 4 5 5 5 5 5 4 4 4 4 5 4 5 5 5 5
9 7 7 8 6 6 6 6 5 4 4 4 5 5 5 4 4 3 3 3 4 4 4 4 4 4 4 4 5 5 5 5 4 4 4 4 4 4 3 4 3 5 5 5
8 7 7 7 6 6 6 6 5 5 4 4 4 4 4 4 4 4 4 4 5 5 5 4 4 4 4 4 4 5 5 4 4 4 4 4 4 4 4 3 4 5 5 6
7 6 6 6 6 6 6 5 5 5 4 4 4 3 3 4 4 4 4 4 4 5 5 5 5 5 4 4 5 5 5 4 4 4 4 4 5 5 5 4 4 4 5 6
8 7 7 6 5 5 4 4 4 4 4 4 3 3 4 4 4 5 4 4 4 5 5 5 6 5 5 5 6 6 5 4 4 4 4 4 4 4 5 5 5 5 4 4
8 7 7 6 6 5 5 5 5 5 4 4 4 4 4 4 4 4 4 4 4 5 6 6 6 6 5 6 6 5 5 4 4 4 4 5 4 5 5 5 5 5 5 4
8 8 8 8 8 7 6 6 6 5 5 5 5 4 4 3 4 4 4 4 5 5 6 6 6 5 6 6 6 5 5 5 5 5 5 5 5 5 6 6 6 6 6 4
11 10 10 10 9 8 7 6 6 5 5 5 5 4 4 4 5 4 4 4 5 5 5 5 5 5 6 6 6 5 5 5 5 6 6 6 6 6 6 6 7 7 6 4
10 10 10 9 8 7 7 6 6 6 5 4 5 5 5 5 5 5 5 5 5 6 5 5 5 6 6 6 5 5 5 5 6 6 6 5 6 6 6 6 6 6 6 5
9 8 8 8 7 7 7 6 6 5 5 5 5 5 5 5 5 5 5 5 5 4 4 4 5 5 6 5 5 5 5 6 6 6 6 6 6 6 6 6 6 6 6 6
7 6 6 6 6 6 5 5 5 5 5 5 6 6 5 5 5 4 5 5 5 4 4 4 4 4 4 3 5 5 5 5 6 6 6 6 6 7 7 6 6 6 6 6
6 5 5 5 5 4 4 4 4 4 5 5 5 5 5 5 5 5 5 5 4 3 4 4 4 3 3 4 4 5 5 6 6 6 6 6 6 6 6 6 6 6 6 6
5 5 4 4 4 3 3 3 3 4 5 5 5 5 5 5 4 4 5 4 4 3 4 4 3 3 4 4 5 5 6 6 6 6 6 6 6 6 6 6 6 6 6 6
4 4 4 4 3 3 3 3 3 3 4 4 4 5 4 4 4 4 4 3 4 4 4 4 4 4 5 4 5 5 5 6 6 6 6 6 6 6 6 6 6 6 6 7
4 4 4 4 3 3 3 3 3 3 3 3 3 4 4 4 4 4 4 4 4 4 4 4 4 5 5 5 5 5 5 6 6 6 5 5 5 6 5 5 5 5 5 6
3 3 3 4 3 2 2 2 2 2 2 3 3 3 3 3 3 3 3 4 5 4 4 4 4 5 5 5 5 5 5 6 6 6 6 6 6 6 5 5 6 5 5 5
3 2 2 2 2 2 2 3 3 3 3 3 3 3 3 3 3 3 4 4 4 4 4 4 4 4 4 5 5 5 5 5 5 5 5 5 5 5 5 6 5 5 5 5
Wind_Direction
265 275 258 255 249 236 240 252 261 268 269 273 279 278 273 252 219 201 197 192 193 191 190 190 194 199 201 205 209 213 219 227 232 234 229 226 221 222 220 221 225 222 219 223
252 253 252 258 255 247 246 251 255 262 266 271 280 271 263 247 217 210 207 204 200 197 192 196 199 199 198 203 209 213 220 227 233 233 228 226 223 223 221 221 224 221 222 223
254 255 264 256 250 241 243 244 248 257 268 274 278 273 261 251 229 222 217 211 204 204 202 204 206 202 199 203 202 206 212 215 214 219 219 229 223 221 220 217 215 218 223 225
260 253 252 274 14 247 249 255 253 263 271 271 274 274 266 255 246 237 224 214 212 216 215 211 209 206 205 203 203 205 212 215 215 220 218 218 221 224 227 222 215 219 224 225
248 257 264 266 241 232 250 262 246 246 262 271 268 257 243 242 250 249 232 222 219 221 218 213 211 210 207 208 208 212 218 224 220 225 227 224 222 224 226 226 223 222 222 222
236 251 257 275 127 259 255 257 224 247 260 258 241 254 266 242 239 244 234 218 211 214 216 211 212 210 209 211 214 221 226 230 226 226 229 231 229 231 227 221 223 222 222 227
238 247 258 307 70 202 237 304 343 271 256 241 247 280 302 260 257 244 226 207 201 203 208 208 205 209 215 218 223 229 229 229 227 228 232 237 235 233 225 217 214 218 222 227
230 239 248 118 159 224 305 335 314 285 272 258 270 293 285 259 251 238 225 210 206 206 206 200 199 206 217 228 235 232 228 230 233 233 231 236 230 233 230 216 214 219 224 226
230 248 307 217 249 293 311 301 306 296 286 266 265 267 264 258 250 240 235 223 214 210 204 203 204 210 220 230 234 229 224 229 234 232 228 232 227 229 228 223 225 228 227 230
247 254 265 265 273 282 291 294 298 295 286 266 258 260 258 258 254 248 243 230 211 203 209 213 212 217 225 224 224 227 228 231 233 231 232 234 235 231 228 229 231 232 233 233
251 265 277 267 266 277 288 295 296 291 282 267 259 259 260 260 258 256 250 232 216 214 216 220 219 217 219 223 227 231 233 234 234 232 234 238 238 238 234 234 235 234 234 233
253 264 265 278 285 279 278 280 281 278 280 273 264 262 265 267 266 262 255 239 230 227 224 221 216 216 214 217 225 232 235 237 237 235 234 237 240 247 243 241 231 238 251 253
265 277 274 283 290 279 273 275 272 265 263 267 268 263 259 264 263 256 249 243 235 228 225 220 216 218 217 217 224 231 237 238 239 242 242 242 243 243 251 250 230 229 234 244
258 260 268 272 280 280 277 277 275 273 272 270 275 272 265 262 258 250 249 250 239 228 223 218 218 221 221 221 226 233 238 236 239 241 246 249 248 245 244 247 252 257 239 224
242 246 263 277 278 279 280 280 281 282 285 286 284 275 265 261 257 254 254 250 240 230 224 220 223 224 220 222 228 233 236 240 241 245 248 251 251 246 245 248 252 257 259 236
243 250 256 259 265 267 269 270 271 275 278 279 279 278 275 273 266 256 249 241 233 231 230 229 231 229 220 222 228 233 234 232 241 245 246 249 247 244 244 246 249 252 252 252
235 243 247 252 256 256 259 263 267 270 273 270 271 277 278 274 267 256 250 245 245 245 240 239 239 234 226 224 227 235 239 231 227 242 244 247 246 246 247 247 249 251 252 245
235 241 244 246 246 251 260 265 267 267 266 267 268 263 263 265 269 267 261 256 254 254 250 245 240 236 228 226 228 235 236 237 237 243 246 244 247 249 251 251 252 253 257 244
239 243 245 247 249 250 252 255 258 261 265 261 256 258 263 268 274 272 265 256 254 259 263 256 241 235 231 228 228 232 238 242 243 245 247 246 248 252 254 256 255 253 252 248
241 245 249 251 252 250 251 254 257 255 255 253 252 257 263 268 274 272 262 259 259 268 276 270 247 240 235 227 223 235 236 240 245 246 247 248 249 252 253 254 255 255 252 249
244 246 247 248 247 247 247 247 247 247 251 250 250 253 258 264 268 268 267 269 275 277 276 259 248 246 242 238 223 236 237 242 246 248 249 251 252 254 255 255 255 254 254 254
241 239 240 242 241 245 249 248 246 246 249 253 255 257 258 260 264 266 265 273 285 283 270 257 253 251 249 241 235 241 244 248 251 252 253 254 254 254 257 260 260 260 260 261
238 234 230 230 234 242 251 253 253 252 251 250 250 253 255 259 260 261 269 278 282 285 277 267 268 257 243 239 244 245 247 249 252 253 255 255 255 256 257 259 261 261 261 262
230 228 228 230 229 229 242 256 260 257 255 255 253 252 253 258 261 262 270 282 288 282 274 273 261 247 243 247 250 252 254 255 257 258 257 257 257 257 259 259 260 262 263 263
222 219 213 216 224 236 246 254 254 255 258 262 266 266 262 260 264 270 276 282 287 283 280 277 258 249 249 254 253 256 259 261 263 262 257 257 258 259 260 261 262 264 264 263
225 225 225 228 235 241 244 249 255 259 265 269 277 283 283 282 279 279 280 285 287 288 285 282 268 256 259 260 259 260 262 264 261 259 258 259 259 258 258 260 265 266 266 266
229 234 237 244 249 243 237 239 246 254 260 265 276 287 292 292 290 292 292 291 291 285 281 279 275 269 267 267 267 264 264 265 264 261 259 258 259 256 255 258 260 262 264 263
Height
1530 1530 1532 1532 1532 1533 1533 1530 1532 1527 1527 1524 1524 1526 1528 1529 1530 1531 1532 1534 1535 1536 1537 1538 1540 1541 1542 1542 1542 1543 1543 1543 1543 1543 1543 1543 1543 1544 1544 1545 1545 1546 1546 1546
1531 1530 1531 1530 1528 1528 1529 1527 1527 1526 1525 1521 1524 1525 1526 1527 1528 1529 1530 1531 1532 1533 1535 1536 1537 1539 1539 1540 1540 1540 1540 1540 1540 1540 1540 1540 1541 1541 1541 1542 1542 1543 1543 1543
1530 1529 1530 1528 1521 1522 1523 1521 1522 1523 1520 1521 1522 1523 1524 1524 1525 1526 1527 1528 1529 1531 1532 1533 1535 1536 1537 1537 1538 1538 1538 1538 1538 1538 1538 1538 1538 1538 1538 1539 1539 1540 1540 1541
1529 1531 1536 1519 1517 1519 1520 1519 1519 1519 1520 1521 1522 1522 1523 1523 1523 1523 1524 1525 1526 1528 1529 1530 1532 1533 1534 1535 1535 1535 1535 1535 1535 1535 1535 1535 1535 1535 1536 1536 1536 1537 1537 1538
1530 1530 1523 1517 1517 1520 1520 1517 1517 1518 1519 1520 1520 1520 1519 1520 1520 1521 1522 1522 1523 1524 1526 1527 1528 1530 1531 1532 1532 1532 1532 1532 1532 1532 1532 1532 1532 1532 1532 1533 1533 1534 1534 1534
1529 1532 1527 1516 1516 1518 1520 1517 1515 1516 1517 1518 1518 1516 1514 1517 1517 1518 1518 1519 1520 1521 1522 1523 1525 1526 1527 1528 1529 1529 1529 1529 1529 1529 1529 1529 1529 1529 1529 1530 1530 1530 1531 1531
1527 1527 1518 1514 1517 1519 1521 1516 1515 1515 1516 1516 1516 1515 1515 1515 1515 1515 1515 1516 1517 1518 1519 1520 1521 1522 1523 1524 1525 1525 1526 1526 1526 1526 1526 1526 1526 1526 1526 1526 1527 1527 1527 1527
1523 1525 1521 1516 1517 1517 1515 1514 1514 1514 1514 1514 1514 1513 1513 1513 1513 1513 1513 1513 1514 1515 1515 1516 1517 1518 1519 1520 1521 1522 1522 1522 1523 1523 1523 1523 1522 1522 1523 1523 1523 1523 1523 1523
1516 1515 1514 1515 1516 1516 1515 1514 1513 1513 1512 1512 1512 1511 1511 1511 1511 1510 1510 1510 1511 1511 1512 1513 1514 1514 1515 1516 1517 1518 1518 1519 1519 1519 1519 1519 1519 1519 1519 1519 1519 1519 1519 1519
1513 1511 1513 1514 1514 1514 1513 1513 1512 1511 1510 1510 1509 1509 1508 1508 1508 1507 1508 1508 1508 1508 1509 1509 1510 1511 1512 1513 1514 1514 1515 1515 1515 1516 1516 1516 1516 1516 1515 1515 1516 1516 1516 1515
1510 1509 1510 1510 1511 1511 1510 1510 1508 1508 1507 1507 1506 1506 1506 1505 1505 1504 1504 1504 1505 1505 1505 1506 1507 1508 1509 1509 1510 1511 1511 1512 1512 1512 1512 1512 1512 1512 1512 1512 1512 1512 1512 1512
1507 1507 1508 1507 1507 1507 1507 1506 1506 1505 1504 1503 1503 1503 1503 1502 1502 1501 1501 1501 1501 1502 1502 1503 1503 1504 1505 1506 1506 1507 1507 1508 1508 1508 1508 1508 1508 1507 1507 1508 1508 1508 1508 1508
1506 1506 1506 1505 1504 1504 1504 1504 1503 1502 1501 1500 1500 1500 1500 1499 1499 1498 1498 1498 1498 1498 1499 1499 1500 1500 1501 1502 1502 1503 1503 1503 1504 1504 1504 1504 1503 1503 1503 1503 1503 1503 1503 1503
1503 1503 1502 1502 1502 1501 1501 1501 1500 1499 1498 1498 1497 1496 1496 1496 1495 1495 1495 1494 1494 1495 1495 1496 1496 1497 1497 1498 1498 1499 1499 1499 1499 1499 1499 1499 1499 1499 1499 1498 1498 1498 1498 1498
1499 1500 1500 1499 1498 1498 1498 1497 1496 1495 1495 1494 1494 1493 1493 1492 1492 1492 1492 1491 1491 1491 1492 1492 1492 1493 1493 1494 1494 1495 1495 1495 1495 1495 1495 1495 1495 1495 1495 1494 1494 1494 1493 1493
1495 1495 1495 1495 1495 1495 1494 1494 1493 1492 1491 1491 1491 1490 1490 1489 1489 1489 1488 1488 1488 1488 1488 1488 1489 1489 1489 1490 1490 1490 1491 1491 1491 1491 1491 1491 1491 1490 1490 1490 1489 1489 1489 1488
1490 1490 1490 1491 1491 1491 1491 1490 1490 1489 1488 1488 1487 1487 1486 1486 1486 1485 1485 1485 1485 1485 1485 1485 1485 1485 1485 1485 1486 1486 1486 1486 1486 1486 1486 1486 1486 1486 1485 1485 1484 1484 1484 1483
1485 1485 1486 1486 1486 1487 1486 1486 1486 1485 1485 1484 1484 1483 1483 1483 1482 1482 1481 1481 1481 1481 1481 1481 1481 1481 1481 1481 1482 1482 1482 1482 1482 1481 1481 1481 1481 1481 1480 1479 1479 1479 1478 1478
1479 1480 1481 1481 1482 1482 1482 1482 1482 1481 1481 1480 1480 1480 1479 1479 1478 1478 1478 1478 1477 1477 1477 1477 1476 1477 1477 1477 1477 1477 1477 1477 1477 1476 1476 1476 1475 1475 1475 1474 1473 1473 1473 1472
1474 1475 1476 1476 1477 1477 1477 1477 1477 1476 1476 1476 1476 1475 1475 1474 1474 1474 1474 1473 1473 1473 1473 1472 1472 1472 1472 1472 1472 1472 1472 1472 1472 1471 1471 1470 1470 1469 1469 1468 1468 1467 1467 1466
1469 1470 1470 1471 1471 1472 1472 1472 1472 1471 1471 1472 1471 1471 1470 1470 1470 1470 1469 1469 1468 1468 1468 1467 1467 1467 1467 1467 1467 1467 1467 1467 1466 1466 1465 1465 1464 1463 1463 1462 1462 1461 1461 1460
1464 1465 1465 1466 1466 1467 1467 1467 1467 1467 1467 1467 1467 1467 1466 1466 1466 1465 1465 1465 1464 1464 1463 1463 1463 1463 1463 1462 1462 1462 1462 1462 1461 1460 1459 1459 1458 1457 1456 1456 1456 1455 1455 1454
1460 1460 1461 1461 1462 1462 1462 1462 1462 1462 1463 1463 1463 1462 1462 1462 1461 1461 1460 1460 1460 1459 1459 1458 1458 1458 1458 1458 1457 1457 1456 1456 1455 1454 1454 1453 1452 1451 1451 1450 1450 1449 1449 1448
1456 1457 1457 1458 1458 1458 1458 1458 1458 1458 1459 1459 1459 1458 1458 1457 1457 1457 1456 1456 1455 1455 1454 1454 1453 1453 1453 1452 1452 1451 1451 1450 1449 1448 1448 1447 1446 1446 1445 1445 1444 1443 1443 1442
1452 1453 1453 1454 1454 1454 1454 1454 1454 1454 1454 1454 1454 1454 1454 1454 1453 1452 1452 1451 1450 1450 1449 1448 1448 1447 1447 1446 1446 1445 1445 1444 1443 1442 1441 1441 1440 1440 1439 1439 1438 1437 1437 1436
1449 1449 1450 1450 1450 1450 1450 1450 1451 1451 1451 1451 1450 1450 1450 1450 1449 1448 1447 1446 1445 1444 1444 1443 1442 1442 1441 1440 1440 1439 1438 1438 1437 1436 1435 1435 1434 1433 1433 1432 1431 1431 1430 1430
1445 1446 1446 1446 1447 1447 1446 1447 1447 1447 1447 1447 1447 1447 1446 1445 1445 1444 1443 1442 1441 1440 1439 1438 1437 1436 1435 1435 1434 1433 1432 1431 1431 1430 1429 1428 1427 1427 1426 1426 1425 1424 1424 1423